GW3210 Weather Reports


time (UTC)temp
F
wind
direction
speed
knots
gust
knots
rain 1hr
in
rain 24hr
in
rain mn
in
humidity
%
barometer
mb
20260903224617 62 0.0 0.0 0.00 0.33 0.27 65 1011.8
20260903223656 61 248 0.9 1.7 0.00 0.33 0.27 62 1011.9
20260903222616 61 135 1.7 2.6 0.00 0.33 0.27 63 1011.9
20260903221616 60 135 0.9 2.6 0.00 0.33 0.27 64 1012.0
20260903220616 60 180 1.7 4.3 0.00 0.33 0.27 65 1012.0
20260903215616 60 203 2.6 3.5 0.00 0.33 0.27 64 1012.0
20260903214616 60 180 3.5 5.2 0.00 0.34 0.27 64 1012.0
20260903213616 60 158 1.7 3.5 0.00 0.34 0.27 68 1012.1
20260903212616 59 203 1.7 4.3 0.00 0.34 0.27 66 1012.1
20260903211616 59 203 2.6 4.3 0.00 0.35 0.27 68 1012.1
20260903210616 59 158 2.6 4.3 0.00 0.36 0.27 69 1012.1
20260903205616 59 180 1.7 2.6 0.00 0.37 0.27 71 1012.0
20260903204636 59 113 1.7 3.5 0.00 0.38 0.27 71 1012.0
20260903203616 59 135 2.6 3.5 0.00 0.40 0.27 70 1012.0
20260903202616 59 135 2.6 7.0 0.00 0.43 0.27 71 1012.0
20260903201616 58 135 2.6 4.3 0.00 0.45 0.27 72 1011.9
20260903200636 59 180 2.6 3.5 0.00 0.47 0.27 72 1011.9
20260903195616 59 158 3.5 7.0 0.02 0.50 0.27 72 1012.0
20260903194616 59 180 1.7 2.6 0.10 0.51 0.27 75 1012.0
20260903193636 58 180 1.7 4.3 0.10 0.52 0.27 77 1012.1
20260903192616 57 248 3.5 6.1 0.10 0.53 0.27 76 1012.1
20260903191616 57 270 1.7 3.5 0.10 0.54 0.27 78 1012.0
20260903190635 57 135 1.7 3.5 0.10 0.55 0.27 77 1012.1
20260903185616 58 293 4.3 7.8 0.08 0.54 0.25 75 1012.1
20260903184615 59 203 1.7 1.7 0.00 0.48 0.17 72 1011.9
20260903183616 60 90 1.7 1.7 0.00 0.50 0.17 74 1011.9
20260903182615 59 68 1.7 2.6 0.00 0.52 0.17 76 1011.9
20260903181615 59 135 2.6 2.6 0.00 0.54 0.17 79 1012.0
20260903180616 59 90 1.7 2.6 0.00 0.57 0.17 79 1012.2
20260903175616 59 113 0.9 1.7 0.00 0.58 0.17 81 1012.1
20260903174615 58 0.0 1.7 0.00 0.60 0.17 84 1012.1
20260903173615 57 113 1.7 2.6 0.00 0.61 0.17 84 1012.0
20260903172615 56 0.0 0.9 0.00 0.61 0.17 84 1012.0
20260903171615 55 135 1.7 2.6 0.02 0.61 0.17 83 1012.3
20260903170616 55 90 0.9 2.6 0.04 0.61 0.17 84 1012.1
20260903165615 54 90 2.6 5.2 0.05 0.61 0.17 83 1012.2
20260903164636 54 90 1.7 3.5 0.06 0.61 0.17 83 1012.2
20260903163655 53 90 2.6 3.5 0.06 0.61 0.17 83 1012.2
20260903162635 53 158 2.6 3.5 0.06 0.61 0.17 83 1012.4
20260903161615 53 113 2.6 3.5 0.04 0.59 0.15 83 1012.3
20260903160635 53 135 0.9 1.7 0.03 0.57 0.13 82 1012.4
20260903155615 53 135 1.7 2.6 0.02 0.56 0.12 82 1012.4
20260903154615 53 113 0.9 1.7 0.02 0.55 0.11 82 1012.4
20260903153615 53 113 0.9 1.7 0.04 0.55 0.11 82 1012.2
20260903152615 53 135 1.7 1.7 0.05 0.55 0.11 81 1012.3
20260903151615 53 113 0.9 1.7 0.05 0.55 0.11 81 1012.3
20260903150615 53 135 3.5 6.1 0.04 0.54 0.10 81 1012.1
20260903145637 53 135 1.7 2.6 0.06 0.54 0.10 81 1012.2
20260903144615 53 135 1.7 6.1 0.07 0.53 0.09 81 1012.2
20260903143615 53 113 2.6 5.2 0.05 0.51 0.07 81 1012.0
20260903142615 53 135 0.9 1.7 0.04 0.50 0.06 80 1011.7
20260903141615 53 158 0.9 1.7 0.05 0.50 0.06 79 1011.6
20260903140615 53 135 1.7 3.5 0.05 0.50 0.06 79 1011.7
20260903135617 53 158 1.7 2.6 0.03 0.48 0.04 79 1011.6
20260903134615 53 158 0.9 1.7 0.01 0.46 0.02 79 1011.5
20260903133617 53 135 0.9 1.7 0.01 0.46 0.02 78 1011.5
20260903132617 53 135 0.9 1.7 0.01 0.46 0.02 78 1011.5
20260903131617 53 0.0 0.9 0.00 0.45 0.01 77 1011.5
20260903130617 53 113 0.9 2.6 0.00 0.45 0.01 76 1011.4
20260903125617 53 113 1.7 3.5 0.00 0.45 0.01 76 1011.3
20260903124617 53 113 0.9 2.6 0.00 0.45 0.01 76 1011.4
20260903123618 53 113 0.9 1.7 0.00 0.45 0.01 76 1011.4
20260903122637 53 135 2.6 3.5 0.00 0.45 0.01 76 1011.4
20260903121617 53 135 1.7 2.6 0.00 0.45 0.01 75 1011.5
20260903120617 53 135 0.9 1.7 0.00 0.45 0.01 76 1011.6
20260903115657 53 135 2.6 4.3 0.00 0.45 0.01 76 1011.5
20260903114617 53 135 2.6 4.3 0.00 0.45 0.01 76 1011.6
20260903113617 53 135 2.6 4.3 0.00 0.45 0.01 77 1011.6
20260903112617 53 135 2.6 4.3 0.00 0.45 0.01 78 1011.4
20260903111617 53 113 1.7 3.5 0.00 0.45 0.01 79 1011.6
20260903110617 53 158 1.7 2.6 0.00 0.45 0.01 81 1011.5
20260903105617 53 135 2.6 4.3 0.00 0.45 0.01 82 1011.5
20260903104616 53 135 1.7 2.6 0.00 0.45 0.01 81 1011.5
20260903103617 53 135 1.7 2.6 0.00 0.45 0.01 82 1011.7
20260903102636 53 135 1.7 3.5 0.00 0.45 0.01 82 1011.6
20260903101617 54 135 0.9 1.7 0.00 0.45 0.01 82 1011.5
20260903100636 54 135 1.7 2.6 0.00 0.45 0.01 82 1011.4
20260903095637 54 90 1.7 3.5 0.00 0.45 0.01 82 1011.3
20260903094637 54 113 0.9 1.7 0.00 0.45 0.01 82 1011.4
20260903093637 54 113 1.7 2.6 0.00 0.45 0.01 82 1011.4
20260903092617 54 135 0.9 1.7 0.00 0.45 0.01 82 1011.5
20260903091616 54 158 0.9 1.7 0.00 0.45 0.01 81 1011.5
20260903090616 54 113 1.7 2.6 0.01 0.45 0.01 81 1011.5
20260903085617 54 90 0.9 1.7 0.01 0.45 0.01 80 1011.4
20260903084616 54 135 0.9 1.7 0.01 0.45 0.01 80 1011.5
20260903083617 54 90 1.7 2.6 0.01 0.45 0.01 80 1011.6
20260903082616 54 158 0.9 1.7 0.01 0.45 0.01 78 1011.6
20260903081617 54 135 0.9 1.7 0.01 0.45 0.01 78 1011.8
20260903080616 54 158 1.7 2.6 0.00 0.44 0.00 78 1011.8
20260903075638 54 135 2.6 4.3 0.00 0.44 0.00 78 1011.7
20260903074616 54 158 2.6 4.3 0.00 0.44 0.00 77 1011.7
20260903073617 54 135 4.3 7.0 0.01 0.44 0.00 78 1011.7
20260903072616 54 158 3.5 7.0 0.01 0.44 0.00 77 1011.5
20260903065617 55 158 0.9 1.7 0.01 0.44 0.44 77 1011.6
20260903064617 55 225 1.7 4.3 0.01 0.44 0.44 77 1011.5
20260903063617 55 203 1.7 4.3 0.00 0.43 0.43 77 1011.5
20260903062637 55 180 1.7 3.5 0.00 0.43 0.43 77 1011.6
20260903061617 55 180 1.7 3.5 0.00 0.43 0.43 79 1011.6
20260903060617 55 158 1.7 2.6 0.00 0.43 0.43 81 1011.5
20260903055617 55 135 2.6 4.3 0.00 0.43 0.43 81 1011.5
20260903054617 55 158 1.7 3.5 0.00 0.43 0.43 82 1011.7
20260903053617 55 158 2.6 7.0 0.00 0.43 0.43 82 1011.7
20260903052637 55 135 3.5 4.3 0.00 0.43 0.43 82 1011.7
20260903051617 55 135 0.9 1.7 0.00 0.43 0.43 82 1011.6
20260903050617 55 158 3.5 7.0 0.00 0.43 0.43 82 1011.6
20260903045617 55 158 2.6 4.3 0.00 0.43 0.43 83 1011.6
20260903044617 55 135 2.6 4.3 0.00 0.43 0.43 83 1011.4
20260903043617 55 180 2.6 6.1 0.00 0.43 0.43 83 1011.2
20260903042616 56 158 3.5 4.3 0.00 0.43 0.43 83 1011.2
20260903041616 56 180 2.6 5.2 0.00 0.43 0.43 83 1011.1
20260903040617 56 158 1.7 2.6 0.00 0.43 0.43 83 1011.0
20260903035617 56 180 1.7 3.5 0.00 0.43 0.43 83 1010.9
20260903034616 56 158 2.6 4.3 0.00 0.43 0.43 83 1010.8
20260903033617 56 135 3.5 4.3 0.00 0.43 0.43 83 1010.7
20260903032637 57 135 2.6 3.5 0.00 0.43 0.43 83 1010.7
20260903031616 57 158 4.3 7.8 0.00 0.43 0.43 83 1010.6
20260903030616 57 158 1.7 3.5 0.00 0.43 0.43 83 1010.4
20260903025616 57 135 2.6 4.3 0.00 0.43 0.43 83 1010.3
20260903024616 57 135 2.6 3.5 0.00 0.43 0.43 83 1010.1
20260903023616 57 158 2.6 5.2 0.00 0.43 0.43 83 1010.2
20260903022617 57 180 3.5 7.8 0.00 0.43 0.43 83 1010.1
20260903021636 57 135 2.6 4.3 0.00 0.43 0.43 83 1010.1
20260903020617 57 158 1.7 3.5 0.00 0.43 0.43 83 1009.8
20260903015637 57 158 2.6 5.2 0.00 0.43 0.43 83 1009.8
20260903014617 57 135 2.6 5.2 0.01 0.43 0.43 83 1009.7
20260903013636 57 135 2.6 2.6 0.01 0.43 0.43 83 1009.7
20260903012616 57 158 0.9 0.9 0.01 0.43 0.43 83 1009.6
20260903011616 58 135 3.5 4.3 0.01 0.43 0.43 83 1009.5
20260903010616 58 180 1.7 3.5 0.01 0.43 0.43 83 1009.5
20260903005657 58 158 0.9 3.5 0.01 0.43 0.43 83 1009.4
20260903004616 58 135 3.5 6.1 0.00 0.42 0.42 83 1009.2
20260903003616 58 135 2.6 3.5 0.00 0.42 0.42 83 1009.2
20260903002617 58 158 0.9 2.6 0.00 0.42 0.42 83 1009.2
20260903001616 58 158 1.7 2.6 0.01 0.42 0.42 83 1009.1
20260903000616 58 180 1.7 5.2 0.02 0.42 0.42 83 1009.1
20260902235616 58 158 1.7 3.5 0.04 0.42 0.42 83 1009.1
20260902234616 58 180 1.7 1.7 0.04 0.42 0.42 83 1009.2
20260902233616 57 203 1.7 2.6 0.04 0.42 0.42 83 1009.1
20260902232636 57 203 1.7 3.5 0.04 0.42 0.42 83 1009.1
20260902231617 58 203 1.7 4.3 0.03 0.41 0.41 83 1009.0
20260902230616 58 135 2.6 4.3 0.02 0.40 0.40 83 1008.9
20260902225616 58 135 1.7 2.6 0.00 0.38 0.38 84 1008.9